Simultaneous Nadir Overpasses (SNOs) Predictions

Prediction of SNOs between GOES-15 and METOP-B Satellite Orbit:

Table of predicted SNOs for the next 14.0 days since TLE Epoch: 7/8/2023
Index Date Time (GOES-15) GOES-15 Lat,Lon METOP-B Lat,Lon Distance(km) Time Diff (sec)
1 07/09/2023 09:34:22 0.14,-176.86 -0.77, 179.18 451.60 80
2 07/10/2023 09:11:07 0.18,-177.87 0.63,-175.88 227.06 80
3 07/11/2023 21:32:42 -0.14,-179.46 0.09, 179.49 118.94 80
4 07/13/2023 09:51:46 0.11, 179.01 -0.79, 174.83 475.40 80
5 07/14/2023 09:28:30 0.15, 177.99 0.55, 179.77 202.66 80
6 07/15/2023 21:50:05 -0.12, 176.41 0.16, 175.15 144.18 80
7 07/18/2023 09:45:53 0.13, 173.88 0.50, 175.42 176.57 80
8 07/19/2023 22:07:28 -0.09, 172.30 0.21, 170.80 170.54 80
